Location: Helsinki
(60.1699°N, 24.9384°E)
Time: 21:54:49
(UTC+03:00)

A-11 Canister half - Visible Passes

Search period start: 02 October 2022 00:00
Search period end: 12 October 2022 00:00
Orbit: 1524 x 1684 km, 47.3° (Epoch: 02 October)

Date Brightness Start Highest point End Pass type
(mag) Time Alt. Az. Time Alt. Az. Time Alt. Az.
02 Oct 9.9 20:49:04 10° WSW 20:57:15 35° SSW 21:03:29 17° SE visible
02 Oct 10.3 22:53:35 10° W 23:00:06 21° SW 23:01:46 20° SSW visible
03 Oct 9.9 20:27:27 10° WSW 20:35:38 35° SSW 20:42:51 14° SE visible
03 Oct 10.3 22:31:53 10° W 22:38:32 22° SW 22:41:08 19° SSW visible
04 Oct 9.9 20:05:50 10° WSW 20:14:01 36° SSW 20:22:15 11° SE visible
04 Oct 10.3 22:10:11 10° W 22:16:56 23° SW 22:20:32 18° S visible
05 Oct 10.0 19:44:12 10° WSW 19:52:24 36° S 20:00:49 10° SE visible
05 Oct 10.4 21:48:30 10° W 21:55:21 23° SW 21:59:59 16° S visible
06 Oct 10.0 19:22:36 10° WSW 19:30:48 36° S 19:39:11 10° SE visible
06 Oct 10.4 21:26:49 10° W 21:33:46 24° SW 21:39:29 14° S visible
07 Oct 10.0 19:00:58 10° WSW 19:09:11 37° S 19:17:34 10° SE visible
07 Oct 10.4 21:05:08 10° W 21:12:11 24° SSW 21:19:01 11° SSE visible
08 Oct 10.4 20:43:28 10° W 20:50:35 25° SSW 20:57:51 10° SSE visible
09 Oct 10.5 20:21:48 10° W 20:29:00 26° SSW 20:36:20 10° SSE visible
10 Oct 10.5 20:00:08 10° W 20:07:24 26° SSW 20:14:49 10° SSE visible
10 Oct 11.1 22:07:58 10° WSW 22:09:36 11° SW 22:11:14 10° SW visible
11 Oct 10.5 19:38:28 10° W 19:45:49 27° SSW 19:53:17 10° SSE visible
11 Oct 11.1 21:45:37 10° WSW 21:48:03 11° SW 21:50:29 10° SW visible
